{"data":{"norad_id":61694,"intl_designator":"2024-195H","name":"STARLINK-11348 [DTC]","alt_names":[],"object_type":"PAYLOAD","status":"ACTIVE","operator":null,"country":"US","launch_date":"2024-10-30","launch_site_code":"AFWTR","launch_vehicle":null,"mission":null,"orbit_class":"UNKNOWN","rcs_meters":null,"size_class":null,"mass_kg":null,"dimensions":null,"purposes":["comms"],"wikipedia_slug":null,"has_3d_model":false,"image_url":null,"decayed_at":null,"tle_current":{"epoch":"2026-05-25T00:36:41.399424Z","epoch_age_seconds":76817,"freshness":"FRESH","line1":"1 61694U 24195H   26145.02547916 -.00000614  00000+0 -20943-6 0  9995","line2":"2 61694  53.1586   9.9039 0000919 103.7109 256.4011 15.69712332 91026","mean_motion":15.69712332,"eccentricity":9.19e-5,"inclination_deg":53.1586,"raan_deg":9.9039,"arg_perigee_deg":103.7109,"mean_anomaly_deg":256.4011,"bstar":-2.0943e-7,"rev_number":9102,"period_min":91.736553930571,"perigee_km":359.1008680713,"apogee_km":360.33928620207,"semimajor_km":6737.8570771367,"source":"CELESTRAK","updated_at":"2026-05-25T13:38:19.440775Z"}}}